Regional Weather Roundup
Issued by NWS

Home | Current Version | Previous Version | Graphics & Text | Print | Product List | Glossary On
Versions: 1 2 3 4 5 6 7 8 9 10 11 12 13 14 15 16 17 18 19 20 21 22 23 24 25 26 27 28 29 30 31 32 33 34 35 36 37 38 39 40 41 42 43 44 45 46 47 48 49 50
147
ASUS44 KLIX 021201
RWRLA
LOUISIANA WEATHER ROUNDUP
NATIONAL WEATHER SERVICE NEW ORLEANS LA
700 AM CDT THU OCT 02 2014

NOTE: "FAIR" INDICATES FEW OR NO CLOUDS BELOW 12,000 FEET WITH NO
      SIGNIFICANT WEATHER AND/OR OBSTRUCTIONS TO VISIBILITY.
      SKY/WX - SKY CONDITION AND SIGNIFICANT WEATHER.
      TMP - AIR TEMPERATURE.    DP   - DEWPOINT TEMPERATURE.
      RH  - RELATIVE HUMIDITY.  PRES - PRESSURE.
      HX  - HEAT INDEX.         WCI  - WIND CHILL INDEX.

*  THESE STATIONS ARE NOT NWS OR FAA STATIONS AND ARE NOT UNDER
   NWS QUALITY CONTROL.

LAZ040-048-061>063-065-066-069-021300-
SOUTHEAST LOUISIANA

CITY           SKY/WX    TMP DP  RH WIND       PRES   REMARKS
N.O. AUDUBON     N/A     78  78  98 MISG        N/A
6HR MIN TEMP:  78; 6HR MAX TEMP:  79;

N.O. INTL ARPT PTCLDY    77  75  93 SE6       29.96S
6HR MIN TEMP:  76; 6HR MAX TEMP:  78;

N.O. LAKEFRONT CLEAR     77  75  93 SE5       29.97R
6HR MIN TEMP:  77; 6HR MAX TEMP:  78;

N.O. DOWNTOWN* FAIR      79  73  83 SE6       29.97S
6HR MIN TEMP:  79; 6HR MAX TEMP:  79;

SLIDELL        MOCLDY    75  72  90 CALM      29.97R
6HR MIN TEMP:  74; 6HR MAX TEMP:  79;

BATON ROUGE    CLOUDY    76  75  97 SE6       29.95S FOG
6HR MIN TEMP:  75; 6HR MAX TEMP:  77;

BOOTHVILLE     CLEAR     78  77  96 SE5       29.98R
6HR MIN TEMP:  77; 6HR MAX TEMP:  78;

BELLE CHASSE   PTCLDY    78  74  87 SE5       29.97R
6HR MIN TEMP:  77; 6HR MAX TEMP:  79;

BOGALUSA*      CLOUDY    78  74  87 CALM      29.99R
6HR MIN TEMP:  76; 6HR MAX TEMP:  78;

GALLIANO*      NOT AVBL
NEW ROADS*     CLOUDY    76  75  97 SE3       29.95R FOG
6HR MIN TEMP:  75; 6HR MAX TEMP:  76;

GONZALES*      CLOUDY    75  75 100 CALM      29.95S FOG
6HR MIN TEMP:  74; 6HR MAX TEMP:  77; 6HR PCP:  0.01;

HAMMOND*       NOT AVBL
HOUMA*         CLEAR    N/A N/A N/A CALM      29.96R
PORT FOURCHON* SUNNY     81  77  89 SE6       30.00R

$$

LAZ041-044-053-054-021300-
SOUTHWEST LOUISIANA

CITY           SKY/WX    TMP DP  RH WIND       PRES   REMARKS
LAKE CHARLES   PTCLDY    79  77  94 S6        29.91R
6HR MIN TEMP:  77; 6HR MAX TEMP:  79;

LAFAYETTE      CLOUDY    78  78 100 CALM      29.94R
6HR MIN TEMP:  77; 6HR MAX TEMP:  78; 6HR PCP:  0.03;

PATTERSON      CLEAR     75  73  94 SE5       29.97R
6HR MIN TEMP:  75; 6HR MAX TEMP:  75;

SALT POINT       N/A     81  79  94 SE3       29.94R
6HR MIN TEMP:  81; 6HR MAX TEMP:  82; 6HR PCP:  0.02;

NEW IBERIA     MOCLDY    78  77  96 S3        29.94S
6HR MIN TEMP:  77; 6HR MAX TEMP:  78;

CHENAULT AIRPK NOT AVBL

$$

LAZ027-028-021300-
CENTRAL LOUISIANA

CITY           SKY/WX    TMP DP  RH WIND       PRES   REMARKS
FORT POLK      CLOUDY    78  76  96 S8        29.91R
6HR MIN TEMP:  76; 6HR MAX TEMP:  78; 6HR PCP:  0.37;

ALEXANDRIA INT CLOUDY    77  76  96 SE7       29.90S
6HR MIN TEMP:  76; 6HR MAX TEMP:  77; 6HR PCP: TRACE;

ALEXANDRIA     PTCLDY    77  75  93 CALM      29.92R
6HR MIN TEMP:  75; 6HR MAX TEMP:  78; 6HR PCP:  0.03;


$$

LAZ001-002-021300-
NORTHWEST LOUISIANA

CITY           SKY/WX    TMP DP  RH WIND       PRES   REMARKS
SHREVEPORT     MOCLDY    75  74  96 SE6       29.87R
6HR MIN TEMP:  75; 6HR MAX TEMP:  76;

BARKSDALE AFB  CLOUDY    75  75 100 S7        29.89R
6HR MIN TEMP:  74; 6HR MAX TEMP:  76;

DTN SHREVEPORT CLOUDY    76  73  91 S7        29.88R
6HR MIN TEMP:  75; 6HR MAX TEMP:  76;


$$

LAZ014-016-021300-
NORTHEAST LOUISIANA

CITY           SKY/WX    TMP DP  RH WIND       PRES   REMARKS
MONROE         CLOUDY    76  73  91 S5        29.93R
6HR MIN TEMP:  76; 6HR MAX TEMP:  77;

TALLULAH       CLOUDY    77  73  87 S6        29.94R
6HR MIN TEMP:  76; 6HR MAX TEMP:  78;


$$




USA.gov is the U.S. government's official web portal to all federal, state and local government web resources and services.